#timestamp,LO_Frequency,Hit,StdDev 
1503252015.5,286046998.4,N,1.5
1503252035.3,286046998.4,N,1.5
1503252055.1,286046998.6,N,1.4
1503252075.9,286046998.7,N,1.4
1503252095.7,286046998.4,N,1.3
1503252115.6,286046998.3,N,1.3
1503252135.4,286047000.0,N,1.3
1503252155.2,286047000.0,N,1.2
1503252175.1,286047000.5,N,1.2
1503252176.0,286047000.5,N,1.2
1503252195.8,286047000.5,N,1.2
1503252215.7,286047000.7,N,1.2
1503252235.5,286046998.3,N,1.2
1503252255.3,286047000.4,N,1.2
1503252275.2,286046999.3,N,1.1
1503252295.0,286046996.9,N,1.3
1503252295.9,286046996.9,N,1.3
1503252315.8,286046997.5,N,1.4
1503252335.6,286046997.9,N,1.4
1503252355.4,286046996.5,N,1.4
1503252375.3,286046997.2,N,1.5
1503252395.1,286046997.4,N,1.5
1503252415.9,286046999.6,N,1.4
1503252435.7,286046999.6,N,1.4
1503252455.5,286046997.4,N,1.4
1503252475.4,286046999.2,N,1.3
1503252495.2,286046998.0,N,1.3
1503252515.1,286046995.6,Y,0.0
1503252516.0,286046995.6,P,1.6
1503252535.8,286046996.7,N,1.3
1503252555.6,286046995.6,P,1.3
1503252575.5,286046995.0,Y,0.0
1503252595.3,286046998.5,P,0.9
1503252615.2,286046998.4,N,0.8
1503252635.0,286046998.6,N,0.8
1503252635.9,286046998.6,N,0.7
1503252655.8,286046998.7,N,0.7
1503252675.6,286046998.6,N,0.7
1503252695.4,286046999.3,N,0.7
1503252715.3,286046998.7,N,0.7
1503252735.1,286046999.4,N,0.7
1503252755.9,286046996.6,Y,0.0
1503252775.7,286046998.1,P,0.2
1503252795.5,286046999.4,N,0.5
1503252815.4,286046999.2,N,0.5
1503252835.2,286046996.9,Y,0.0
1503252855.1,286047000.8,P,1.0
1503252856.0,286047000.8,N,0.9
1503252875.8,286047001.1,N,0.9
1503252895.6,286046998.1,N,1.2
1503252915.5,286046998.1,N,1.3
1503252935.3,286047001.1,N,1.3
1503252955.2,286046998.9,N,1.3
1503252975.0,286046999.2,N,1.2
1503252975.9,286046999.2,N,1.2
1503252995.8,286046999.2,N,1.1
1503253015.6,286046997.0,N,1.3
1503253035.4,286046999.5,N,1.2
1503253055.3,286046997.0,N,1.3
1503253075.1,286046996.5,N,1.5
1503253095.9,286046999.4,N,1.4
1503253115.7,286046996.7,N,1.5
1503253135.5,286046996.7,N,1.5
1503253155.4,286046996.8,N,1.5
1503253175.2,286046997.4,N,1.5
1503253195.0,286046997.3,N,1.5
1503253196.0,286046997.3,N,1.5
1503253215.8,286046997.9,N,1.5
1503253235.6,286046997.8,N,1.5
1503253255.5,286046995.1,Y,0.0
1503253275.3,286046999.2,P,0.4
1503253295.1,286046996.9,P,1.0
1503253315.9,286046997.2,N,0.9
1503253335.7,286046997.0,Y,0.0
1503253355.6,286047001.0,P,1.5
1503253375.4,286047000.4,N,1.3
1503253395.2,286047000.8,N,1.2
1503253415.1,286046998.6,N,1.2
1503253416.0,286046998.6,N,1.2
1503253435.8,286046998.6,N,1.2
1503253455.7,286047000.9,N,1.2
1503253475.5,286046998.1,N,1.2
1503253495.3,286047001.2,N,1.3
1503253515.2,286047001.2,N,1.3
1503253535.0,286046998.8,N,1.3
1503253535.9,286046998.8,N,1.2
1503253555.8,286046998.2,N,1.3
1503253575.6,286047000.9,N,1.3
1503253595.5,286047000.4,N,1.2
1503253615.3,286046998.7,N,1.2
1503253635.1,286046998.7,N,1.2
1503253655.9,286046998.5,N,1.2
1503253675.7,286046998.6,N,1.2
1503253695.5,286046998.8,N,1.2
1503253715.4,286046996.7,N,1.3
1503253735.2,286046999.2,N,1.2
1503253755.1,286046996.5,N,1.3
1503253756.0,286046996.5,N,1.4
1503253775.8,286046996.5,N,1.5
1503253795.6,286046996.5,N,1.5
1503253815.5,286046999.4,N,1.5
1503253835.3,286046999.3,N,1.5
1503253855.2,286046996.9,N,1.5
1503253875.0,286046996.6,N,1.5
1503253875.9,286046996.6,N,1.5
1503253895.7,286046999.5,N,1.5
1503253915.6,286046998.6,N,1.4
1503253935.4,286046998.8,N,1.4
1503253955.3,286046998.3,N,1.4
1503253975.1,286046998.7,N,1.4
1503253976.0,286046998.7,N,1.4
1503253995.8,286047001.2,N,1.5
1503254015.7,286047000.9,N,1.4
1503254035.5,286047001.0,N,1.4
1503254055.4,286047000.7,N,1.5
1503254075.2,286047000.6,N,1.5
1503254095.0,286047001.0,N,1.6
1503254095.9,286047001.0,N,1.6
1503254115.8,286047000.7,N,1.6
1503254135.6,286047000.7,N,1.6
1503254155.5,286047000.4,N,1.6
1503254175.3,286047000.1,N,1.7
1503254195.1,286047000.6,N,1.7
1503254215.9,286047000.7,N,1.7
1503254235.7,286047000.9,N,1.7
1503254255.5,286047000.0,N,1.7
1503254275.4,286046999.9,N,1.6
1503254295.2,286047000.1,N,1.5
1503254315.1,286047000.3,N,1.4
1503254316.0,286047000.3,N,1.3
1503254335.8,286047000.4,N,1.3
1503254355.7,286047000.0,N,1.3
1503254375.5,286047002.1,N,1.2
1503254395.3,286047001.6,N,1.1
1503254415.2,286047002.5,N,1.0
1503254435.0,286047001.8,N,1.0
1503254435.9,286047001.8,N,1.0
1503254455.7,286047001.9,N,0.9
1503254475.6,286047001.3,N,0.8
1503254495.4,286047003.9,Y,0.0
1503254515.3,286047001.7,P,0.5
1503254535.1,286047004.1,P,1.4
1503254555.8,286047003.9,N,1.4
1503254575.7,286047004.3,N,1.5
1503254595.5,286047004.0,N,1.4
1503254615.4,286047002.1,N,1.3
1503254635.2,286047003.5,N,1.3
1503254655.0,286047003.8,Y,0.0
1503254655.9,286047003.8,P,0.4
1503254675.8,286046999.9,N,1.7
1503254695.6,286047000.1,N,1.7
1503254715.5,286047000.9,N,1.6
1503254735.3,286047002.5,N,1.5
1503254755.1,286046999.8,N,1.5
1503254775.9,286046999.9,N,1.5
1503254795.7,286047002.3,N,1.5
1503254815.6,286047000.1,N,1.4
1503254835.4,286047000.3,N,1.4
1503254855.2,286046999.8,N,1.4
1503254875.1,286047002.8,N,1.4
1503254876.0,286047002.8,N,1.4
1503254895.8,286046999.8,N,1.4
1503254915.7,286046999.8,N,1.4
1503254935.5,286046999.8,N,1.4
1503254955.3,286047002.3,N,1.4
1503254975.2,286047002.1,N,1.4
1503254995.0,286047002.3,N,1.4
1503254995.9,286047002.3,N,1.4
1503255015.8,286047001.6,N,1.3
1503255035.6,286047002.3,N,1.3
1503255055.4,286047001.5,N,1.3
1503255075.3,286047001.8,N,1.3
1503255095.1,286047001.6,N,1.2
1503255115.8,286047002.0,N,1.2
1503255135.7,286047001.6,N,1.2
1503255155.5,286047001.5,N,1.2
1503255175.4,286047001.6,N,1.2
1503255195.2,286047001.8,N,1.1
1503255215.0,286047004.3,Y,0.0
1503255215.9,286047004.3,P,1.5
1503255235.8,286047002.3,N,1.2
1503255255.6,286047002.5,N,1.1
1503255275.4,286047001.5,N,1.1
1503255295.3,286047002.2,N,1.0
1503255315.1,286047001.9,N,0.9
1503255335.9,286047002.5,N,0.8
1503255355.7,286047002.0,N,0.8
1503255375.5,286047002.6,Y,0.0
1503255395.4,286047000.5,P,0.9
1503255415.2,286047000.1,N,0.9
1503255435.1,286047000.1,N,0.9
1503255436.0,286047000.1,N,0.8
1503255455.8,286047000.3,N,0.8
1503255475.6,286047001.0,N,0.7
1503255495.5,286047000.2,N,0.7
1503255515.3,286047002.8,Y,0.0
1503255535.2,286047000.4,P,0.1
1503255555.9,286047002.7,P,1.0
1503255575.7,286047002.5,N,1.1
1503255595.6,286047002.7,N,1.1
